Oxnard, CA

11:34 PM PDT on September 22, 2017 (GMT -0700)
Oxnard

Weather History for KOXR - February, 2013

Change the Weather History Date:

Friday, February 1, 2013

  Actual Average Record
Temperature  
Mean Temperature 58 °F -  
Max Temperature 66 °F 65 °F 85 °F (1954)
Min Temperature 50 °F 43 °F 35 °F (1949)
Degree Days  
Heating Degree Days 7    
Growing Degree Days 8 (Base 50)    
Moisture  
Dew Point 47 °F    
Average Humidity 75    
Maximum Humidity 100    
Minimum Humidity 37    
Precipitation  
Precipitation 0.00 in - - ()
Sea Level Pressure  
Sea Level Pressure 30.15 in    
Wind  
Wind Speed 7 mph (NNW)    
Max Wind Speed 13 mph    
Max Gust Speed 105 mph    
Visibility 8 miles    
Events Fog    
Averages and records for this station are not official NWS values.
T = Trace of Precipitation, MM = Missing Value Source: NWS Daily Summary

Daily Weather History Graph

Daily Weather History Graph

Search for Another Location

Airport or City:

Trip Planner

Search our weather history database for the weather conditions in past years. The results will help you decide how hot, cold, wet, or windy it might be!

Date:

Astronomy

Feb. 01, 2013 Rise Set
Actual Time 6:53 AM PST 5:27 PM PST
Civil Twilight 6:27 AM PST 5:53 PM PST
Nautical Twilight 5:57 AM PST 6:23 PM PST
Astronomical Twilight 5:28 AM PST 6:53 PM PST
Moon 11:20 PM PST (2/1) 9:48 AM PST (2/1)
Length of Visible Light 11h 26m
Length of Day
10h 33m
Waning Gibbous, 69% of the Moon is Illuminated
Feb 1
Waning Gibbous
Feb 3
Last Quarter
Feb 9
New
Feb 17
First Quarter
Feb 25
Full

Hourly Weather History & Observations

Time (PST) Temp. Dew Point Humidity Pressure Visibility Wind Dir Wind Speed Gust Speed Precip Events Conditions
12:51 AM 54.0 °F 39.9 °F 59% 30.12 in 10.0 mi NE 5.8 mph - N/A   Clear
1:51 AM 55.0 °F 37.9 °F 53% 30.13 in 10.0 mi NE 9.2 mph - N/A   Clear
2:51 AM 55.0 °F 37.9 °F 53% 30.13 in 10.0 mi ENE 10.4 mph - N/A   Clear
3:51 AM 50.0 °F 37.9 °F 63% 30.13 in 10.0 mi Calm Calm - N/A   Clear
4:51 AM 54.0 °F 37.0 °F 53% 30.12 in 10.0 mi NNE 10.4 mph - N/A   Clear
5:51 AM 54.0 °F 37.0 °F 53% 30.14 in 10.0 mi NNE 8.1 mph - N/A   Clear
6:51 AM 54.0 °F 37.0 °F 53% 30.15 in 10.0 mi NE 6.9 mph - N/A   Clear
7:51 AM 55.9 °F 37.0 °F 49% 30.14 in 10.0 mi NNE 11.5 mph - N/A   Clear
8:51 AM 61.0 °F 37.9 °F 42% 30.14 in 10.0 mi NNE 11.5 mph - N/A   Clear
9:51 AM 66.0 °F 39.0 °F 37% 30.13 in 10.0 mi NE 8.1 mph - N/A   Clear
10:51 AM 63.0 °F 53.1 °F 70% 30.14 in 10.0 mi WNW 6.9 mph 40.3 mph N/A   Clear
11:51 AM 62.1 °F 52.0 °F 70% 30.16 in 10.0 mi WSW 12.7 mph - N/A   Clear
12:23 PM 60.8 °F 53.6 °F 77% 30.16 in 10.0 mi North - - N/A   Clear
12:51 PM 62.1 °F 52.0 °F 70% 30.15 in 10.0 mi West 8.1 mph - N/A   Clear
1:51 PM 62.1 °F 52.0 °F 70% 30.14 in 10.0 mi West 5.8 mph - N/A   Clear
2:35 PM 60.8 °F 50.0 °F 68% 30.13 in 10.0 mi North - - N/A   Clear
2:51 PM 62.1 °F 48.9 °F 62% 30.12 in 10.0 mi WNW 3.5 mph 104.7 mph N/A   Squalls
3:51 PM 59.0 °F 53.1 °F 81% 30.13 in 10.0 mi WNW 5.8 mph - N/A   Clear
4:51 PM 57.9 °F 52.0 °F 81% 30.12 in 10.0 mi Calm Calm - N/A   Clear
6:28 PM 53.6 °F 51.8 °F 94% 30.14 in 1.2 mi West 6.9 mph - N/A   Partly Cloudy
6:30 PM 53.6 °F 51.8 °F 94% 30.14 in 0.8 mi WNW 6.9 mph - N/A   Mist
6:51 PM 53.1 °F 52.0 °F 96% 30.15 in 0.2 mi WNW 6.9 mph - N/A Fog Fog
7:17 PM 53.6 °F 53.6 °F 100% 30.16 in 2.0 mi NW 6.9 mph - N/A   Mostly Cloudy
7:25 PM 53.6 °F 53.6 °F 100% 30.16 in 7.0 mi NW 6.9 mph - N/A   Scattered Clouds
7:51 PM 54.0 °F 53.1 °F 97% 30.16 in 6.0 mi WNW 6.9 mph - N/A   Clear
8:51 PM 53.1 °F 52.0 °F 96% 30.17 in 4.0 mi WNW 4.6 mph - N/A   Clear
9:51 PM 53.1 °F 52.0 °F 96% 30.17 in 4.0 mi NW 3.5 mph - N/A   Clear
10:51 PM 53.1 °F 51.1 °F 93% 30.18 in 4.0 mi Calm Calm - N/A   Clear
11:13 PM 51.8 °F 50.0 °F 94% 30.17 in 2.5 mi Calm Calm - N/A   Clear
11:20 PM 51.8 °F 51.8 °F 100% 30.16 in 4.0 mi NNE 4.6 mph - N/A   Clear
11:51 PM 52.0 °F 50.0 °F 93% 30.17 in 8.0 mi WNW 3.5 mph - N/A   Clear